Flag for Comoros Weather past 2 weeks in Moroni, Comoros

Now
88 °F

Passing clouds.


Feels Like: 96 °F
Forecast: 82 / 86 °F
Wind: 3 mph from Northwest

Location: Hahaya International Airport

Current Time: Dec 20, 2014 at 4:41:50 PM

Latest Report: Dec 20, 2014 at 4:00 PM


Visibility: N/A

Pressure: 29.86 "Hg

Humidity: 62%

Dew point: 73 °F

Location of MoroniLocation

Historic Weather in Moroni — Graph

°F

Moroni temperature yesterday

Maximum temperature yesterday: 91 °F (at 12:00 PM)
Minimum temperature yesterday: 77 °F (at 6:00 AM)
Average temperature yesterday: 87 °F

Past Weeks' High & Low Weather Summary

 TemperatureHumidityPressure
High93 °F (Dec 12, 12:00 PM)94% (Dec 6, 6:00 AM)30.04 "Hg (Dec 6, 6:00 AM)
Low75 °F (Dec 6, 5:00 AM)49% (Dec 11, 11:00 AM)29.80 "Hg (Dec 18, 3:00 PM)
Average85 °F74%29.92 "Hg
* Reported Dec 5 3:00 PM — Dec 20 3:00 PM, Moroni, Weather by CustomWeather, © 2014

Note: Actual official high and low records may vary slightly from our data, if they occured in-between our weather recording intervals... More about our weather records

Advertising

Moroni weather history for previous 24 hours

 ConditionsComfort  
Time TempWeatherWind HumidityBarometerVisibility
3:00 PM
Dec 20
86 °FScattered clouds.8 mph66%29.89 "HgN/A
1:00 PM90 °FPassing clouds.10 mph71%29.92 "HgN/A
12:00 PM90 °FPassing clouds.10 mph71%29.92 "HgN/A
11:00 AM90 °FPassing clouds.10 mph75%29.92 "HgN/A
10:00 AM88 °FPassing clouds.8 mph75%29.95 "HgN/A
9:00 AM86 °FPassing clouds.8 mph79%29.92 "HgN/A
8:00 AM86 °FScattered clouds.7 mph75%29.92 "HgN/A
7:00 AM82 °FScattered clouds.1 mph84%29.92 "HgN/A
5:00 AM79 °FThunderstorms. Overcast.1 mph94%29.89 "HgN/A
4:00 AM79 °FThunderstorms. Overcast.2 mph89%29.89 "HgN/A
3:00 AM79 °FThunderstorms. Overcast.2 mph89%29.89 "HgN/A
2:00 AM79 °FPassing clouds.3 mph84%29.86 "HgN/A
12:00 AM81 °FPassing clouds.3 mph84%29.89 "HgN/A
11:00 PM
Dec 19
81 °FThunderstorms. Passing clouds.3 mph84%29.89 "HgN/A
10:00 PM82 °FThunderstorms. Overcast.2 mph74%29.92 "HgN/A
9:00 PM84 °FPassing clouds.2 mph79%29.89 "HgN/A
8:00 PM84 °FPassing clouds.6 mph84%29.86 "HgN/A
7:00 PM86 °FPassing clouds.7 mph75%29.86 "HgN/A
6:00 PM88 °FPassing clouds.9 mph66%29.83 "HgN/A
5:00 PM90 °FPassing clouds.12 mph67%29.83 "HgN/A
4:00 PM90 °FPassing clouds.13 mph67%29.83 "HgN/A
Weather by CustomWeather, © 2014

See weather overviewHow to use our weather pages